TimeEST,TemperatureF,Dew PointF,Humidity,Sea Level PressureIn,VisibilityMPH,Wind Direction,Wind SpeedMPH,Gust SpeedMPH,PrecipitationIn,Events,Conditions,WindDirDegrees,DateUTC
12:53 AM,73.9,69.1,85,30.04,10.0,ESE,15.0,-,N/A,,Mostly Cloudy,120,2014-01-05 05:53:00
1:53 AM,73.9,64.9,73,30.04,10.0,SE,9.2,-,N/A,,Scattered Clouds,130,2014-01-05 06:53:00
2:53 AM,73.0,66.9,81,30.02,10.0,SSE,6.9,-,N/A,,Scattered Clouds,150,2014-01-05 07:53:00
3:53 AM,72.0,64.9,78,30.00,10.0,SE,4.6,-,N/A,,Scattered Clouds,130,2014-01-05 08:53:00
4:53 AM,73.9,68.0,82,29.98,10.0,SE,15.0,-,N/A,,Partly Cloudy,130,2014-01-05 09:53:00
5:53 AM,73.9,69.1,85,29.96,10.0,SE,19.6,-,N/A,,Scattered Clouds,130,2014-01-05 10:53:00
6:53 AM,75.0,70.0,84,29.99,10.0,SE,19.6,-,N/A,,Mostly Cloudy,140,2014-01-05 11:53:00
7:09 AM,75.2,71.6,89,30.00,10.0,SE,13.8,20.7,N/A,,Mostly Cloudy,140,2014-01-05 12:09:00
7:53 AM,75.9,71.1,85,30.02,10.0,SSE,11.5,-,N/A,,Overcast,150,2014-01-05 12:53:00
8:53 AM,77.0,71.1,82,30.03,10.0,SSE,15.0,20.7,N/A,,Mostly Cloudy,150,2014-01-05 13:53:00
9:53 AM,77.0,71.1,82,30.06,10.0,South,8.1,-,N/A,,Mostly Cloudy,170,2014-01-05 14:53:00
10:53 AM,79.0,72.0,79,30.03,10.0,SSE,15.0,-,0.01,,Mostly Cloudy,160,2014-01-05 15:53:00
11:53 AM,79.0,70.0,74,30.01,10.0,South,11.5,-,N/A,,Overcast,170,2014-01-05 16:53:00
12:53 PM,80.1,70.0,71,29.99,10.0,SSE,12.7,-,N/A,,Mostly Cloudy,160,2014-01-05 17:53:00
1:53 PM,75.9,69.1,79,29.98,9.0,South,15.0,27.6,0.01,Rain,Light Rain,170,2014-01-05 18:53:00
2:53 PM,79.0,70.0,74,29.97,10.0,SSE,8.1,-,0.00,,Scattered Clouds,160,2014-01-05 19:53:00
3:53 PM,75.9,68.0,76,29.99,10.0,South,10.4,-,0.01,,Mostly Cloudy,180,2014-01-05 20:53:00
4:53 PM,77.0,66.9,71,29.99,10.0,SSW,6.9,-,N/A,,Mostly Cloudy,200,2014-01-05 21:53:00
5:53 PM,77.0,64.9,66,29.99,10.0,SW,6.9,-,N/A,,Mostly Cloudy,220,2014-01-05 22:53:00
6:53 PM,75.9,64.9,69,30.01,10.0,SW,8.1,-,N/A,,Mostly Cloudy,220,2014-01-05 23:53:00
7:53 PM,75.0,64.9,71,30.02,10.0,SSW,3.5,-,N/A,,Mostly Cloudy,200,2014-01-06 00:53:00
8:53 PM,73.0,66.0,79,30.03,10.0,SSE,3.5,-,N/A,,Scattered Clouds,150,2014-01-06 01:53:00
9:53 PM,73.0,66.9,81,30.03,10.0,Variable,4.6,-,N/A,,Clear,0,2014-01-06 02:53:00
10:53 PM,71.1,66.9,87,30.02,10.0,SSE,4.6,-,N/A,,Clear,150,2014-01-06 03:53:00
11:53 PM,71.1,68.0,90,30.01,10.0,SSW,3.5,-,N/A,,Clear,200,2014-01-06 04:53:00